Wind_Speed
35 35 36 39 42 41 41 41 43 43 41 39 39 38 38 36 33 34 37 39 39 40 40 42 43 44 44 44 44 44 44 44 44 44 45 46 47 47 48 48 49 49
36 39 41 42 43 43 42 42 43 43 39 37 35 35 34 32 30 32 36 36 36 38 39 40 41 42 42 42 42 43 43 44 44 45 45 46 47 47 48 49 49 50
32 39 42 42 44 44 42 43 44 42 38 35 33 32 32 30 29 30 32 32 33 36 38 38 40 41 41 41 41 42 43 44 44 45 45 45 46 47 48 49 50 49
31 36 42 43 44 44 42 43 44 41 38 36 33 31 30 29 29 29 29 30 31 34 36 37 38 39 40 40 41 42 42 43 43 44 44 45 47 49 50 50 49 48
34 34 38 41 42 42 42 42 40 38 36 36 34 32 31 29 29 29 29 29 31 33 35 36 37 39 41 42 43 43 43 43 44 45 46 48 49 50 49 49 47 45
36 32 30 35 40 43 43 41 38 35 35 36 35 34 32 31 30 30 30 30 31 32 34 36 38 40 43 45 46 45 45 45 46 47 48 49 49 49 48 47 46 44
40 35 27 27 35 42 42 39 36 34 33 35 36 35 34 33 32 31 30 31 31 32 34 35 37 39 43 46 47 47 46 46 47 47 48 49 49 49 48 46 45 43
44 42 31 24 27 35 38 36 35 34 33 35 37 37 35 34 33 32 31 31 30 31 32 34 35 37 39 41 43 45 45 46 47 48 49 48 48 46 45 43 42 41
44 44 37 28 27 30 35 36 35 36 36 36 37 37 35 35 34 33 32 30 30 30 31 32 33 34 35 37 39 42 44 45 46 46 45 43 42 41 41 41 40 40
38 39 36 32 28 28 35 39 39 40 40 38 37 36 34 33 33 33 32 31 29 29 30 31 31 32 34 35 37 39 40 41 40 39 38 37 37 37 37 38 38 39
34 33 34 32 27 26 36 43 42 42 42 39 37 35 32 32 33 33 33 31 29 29 30 31 31 32 33 34 35 35 34 34 33 32 31 31 31 32 33 35 36 36
35 33 34 33 26 24 32 41 43 42 41 38 35 33 32 32 32 33 33 31 30 30 31 32 32 32 32 31 30 28 27 27 27 27 27 27 28 29 30 32 32 32
37 34 34 33 27 25 27 33 39 40 39 37 35 32 32 32 32 33 32 31 31 31 30 30 30 29 28 26 24 22 22 23 24 26 27 28 29 29 30 30 29 29
39 36 35 32 29 28 29 31 35 38 39 38 36 34 33 33 32 31 30 30 30 29 28 26 25 24 22 21 21 21 21 23 24 26 28 29 30 30 30 30 29 28
41 40 37 34 32 33 34 34 36 40 41 39 37 37 36 34 32 29 27 28 27 25 24 22 21 21 20 20 21 22 23 25 26 27 28 28 28 28 29 29 28 27
42 40 38 37 35 36 38 38 40 42 41 38 36 37 37 36 34 30 27 27 26 24 24 23 23 22 21 21 22 23 25 26 27 28 27 26 26 27 28 28 27 26
41 37 36 37 36 36 40 43 43 42 41 39 39 39 38 36 35 32 30 28 27 26 26 26 25 24 23 23 24 24 26 27 28 28 28 28 27 26 27 28 27 27
40 36 36 38 38 37 40 43 44 44 43 41 40 40 39 38 37 36 34 32 31 30 29 28 28 28 27 27 26 26 28 29 29 30 31 31 30 29 30 30 30 29
41 39 38 40 40 39 39 40 42 46 47 44 41 40 41 41 41 41 39 37 35 34 33 32 33 33 32 31 31 30 30 30 31 32 33 34 33 33 33 32 32 31
44 43 42 41 42 41 40 41 43 47 49 48 46 43 41 39 40 42 43 41 38 36 36 36 37 38 38 37 36 35 33 33 34 35 36 37 37 36 36 36 36 35
50 49 48 46 45 45 44 44 45 49 52 51 49 47 43 39 39 42 44 42 40 38 38 38 39 41 42 41 40 39 37 36 36 37 38 39 40 40 40 40 41 40
54 53 53 50 48 47 47 46 46 49 52 53 51 50 48 44 44 45 44 42 41 42 42 41 42 44 45 46 46 44 42 41 40 41 42 42 42 43 43 43 44 44
57 55 55 53 51 51 50 49 47 48 51 52 53 52 50 48 48 49 48 44 43 44 46 47 47 48 49 50 52 52 50 48 46 46 46 46 45 45 46 46 47 47
60 57 54 54 56 56 54 53 52 51 51 52 54 56 55 52 52 53 53 51 49 49 51 52 52 53 53 53 54 56 56 54 52 51 50 48 48 47 48 49 50 51
63 61 59 59 61 61 58 56 56 56 56 56 58 60 59 58 57 57 58 59 59 58 59 59 58 57 56 55 56 58 59 58 57 55 53 51 50 50 50 52 53 54
67 65 65 65 65 64 63 60 59 59 60 60 62 64 63 62 61 60 60 62 63 63 63 62 61 61 59 58 59 61 62 62 60 58 56 54 53 53 53 54 55 56
Wind_Direction
275 275 277 281 287 291 295 302 307 304 291 283 281 279 278 275 270 264 260 258 257 257 257 258 258 259 259 261 262 264 266 267 268 269 270 271 272 274 277 280 283 286
268 270 274 280 286 289 292 300 308 305 291 283 282 279 278 275 266 259 257 257 255 254 256 257 258 259 260 262 263 265 266 267 268 270 271 272 274 276 279 282 284 286
253 263 268 275 283 286 288 296 304 303 291 284 285 282 280 277 270 264 261 259 256 254 255 255 256 260 262 263 263 264 265 267 268 270 271 274 277 279 282 284 286 287
234 252 261 269 276 279 284 291 296 298 291 285 286 287 285 281 276 271 265 260 257 256 255 254 254 257 260 261 261 262 263 264 266 268 271 275 279 282 284 285 286 286
225 240 255 262 266 270 280 289 292 293 288 283 287 291 289 285 279 274 267 261 257 256 255 254 252 253 255 258 258 259 261 263 267 270 274 278 280 282 283 284 284 283
231 238 254 264 267 273 280 286 289 289 285 282 285 291 291 287 282 276 269 263 259 258 257 256 255 253 253 255 257 259 262 267 272 275 277 279 280 282 282 282 281 280
239 242 251 263 272 278 281 284 288 288 285 283 283 288 291 288 283 277 270 266 263 260 257 257 256 255 254 255 258 262 266 270 274 276 278 279 280 280 280 279 278 276
241 242 242 242 254 268 274 281 291 294 291 287 284 284 287 286 283 278 271 267 264 261 259 258 257 256 256 257 260 265 269 271 273 275 277 278 278 279 278 277 275 274
239 240 240 233 233 250 262 273 288 294 292 289 285 282 282 283 282 278 272 266 264 263 261 261 261 261 261 262 264 267 270 272 273 274 276 276 277 277 277 275 274 272
233 236 239 233 229 242 258 270 282 287 288 288 285 281 279 280 280 277 273 269 266 265 265 264 264 264 264 265 267 270 273 274 275 275 276 277 278 277 276 275 273 272
225 231 234 229 227 239 258 270 276 279 283 286 284 281 279 279 278 276 274 272 270 268 266 264 263 262 263 266 269 273 275 276 277 278 279 280 282 281 280 277 275 272
222 228 230 229 228 231 247 263 270 272 279 285 286 284 281 278 275 274 274 273 270 267 264 263 262 263 265 268 271 273 275 277 279 282 284 285 286 285 283 280 276 272
225 230 230 230 230 222 228 250 261 266 275 287 291 288 282 277 274 272 273 271 268 265 264 264 264 265 266 268 269 270 273 278 282 285 287 288 287 285 282 279 275 271
228 232 230 231 232 224 222 236 250 261 273 284 291 289 282 277 274 271 269 267 265 265 264 263 262 262 264 266 268 272 275 279 284 287 289 289 286 283 279 275 272 269
233 236 234 234 237 234 232 236 245 256 268 277 283 286 282 277 273 270 267 265 264 262 261 259 258 258 261 264 270 275 280 284 287 290 291 289 284 279 274 271 268 265
235 238 237 237 239 239 241 244 245 252 262 270 274 278 280 277 273 269 266 265 263 261 259 258 257 257 260 264 271 277 282 286 290 292 291 288 282 276 271 267 265 263
233 237 238 237 236 238 243 249 251 253 260 266 268 270 274 276 274 270 266 265 263 261 260 259 257 258 261 266 270 275 279 284 287 288 288 285 281 276 270 268 268 268
230 234 237 236 237 240 244 249 253 255 257 261 262 262 265 270 272 271 268 265 263 261 261 260 256 257 262 266 269 272 276 278 280 280 281 281 280 276 272 271 271 271
226 228 232 236 240 244 247 248 250 252 254 255 256 257 260 264 267 268 268 266 264 263 262 260 257 258 261 265 270 273 274 273 273 274 275 278 278 277 274 272 271 271
222 222 224 230 236 240 243 245 247 251 254 255 256 256 258 259 261 263 265 266 266 264 262 260 259 259 261 264 269 273 274 271 269 270 272 274 276 277 275 273 273 274
222 222 220 224 229 234 238 242 246 251 255 257 256 255 256 258 257 258 261 264 265 264 263 263 262 262 263 265 267 270 272 270 269 271 272 274 275 275 275 274 274 276
223 226 225 225 227 231 235 238 243 249 254 256 257 255 255 256 256 258 261 263 262 260 261 264 265 265 266 267 267 268 270 270 271 273 274 274 274 273 273 274 275 278
223 227 230 231 230 231 233 235 239 246 251 254 255 255 254 253 255 258 261 263 262 261 261 263 266 268 268 268 267 267 269 271 273 275 275 274 273 272 272 273 276 279
223 226 230 233 234 234 234 234 236 240 245 249 252 253 253 253 255 257 258 260 262 264 264 265 268 269 269 268 267 267 268 270 273 274 275 274 272 272 273 274 276 278
223 226 228 230 232 233 234 233 234 236 239 244 249 253 254 254 256 257 258 259 261 263 265 267 268 269 268 266 264 264 265 268 271 273 274 273 272 272 273 274 276 279
223 226 228 231 233 234 234 235 236 237 239 243 248 252 255 256 258 259 261 261 261 262 263 265 267 268 266 263 261 261 263 266 269 272 273 273 272 272 273 274 276 278
Height
10651 10652 10652 10651 10651 10651 10651 10650 10649 10648 10647 10646 10646 10646 10647 10649 10654 10655 10653 10654 10655 10655 10657 10659 10659 10661 10664 10666 10667 10668 10669 10670 10671 10672 10672 10672 10672 10673 10673 10673 10673 10673
10645 10645 10646 10646 10646 10646 10647 10646 10645 10644 10643 10642 10641 10641 10642 10644 10648 10650 10648 10649 10650 10651 10652 10653 10654 10656 10659 10661 10663 10664 10665 10665 10666 10667 10667 10667 10667 10668 10668 10668 10668 10668
10640 10639 10640 10641 10641 10641 10642 10642 10641 10640 10639 10638 10638 10637 10638 10639 10641 10643 10643 10644 10645 10646 10648 10649 10650 10652 10654 10657 10658 10660 10661 10661 10662 10662 10662 10662 10662 10663 10663 10663 10663 10662
10633 10634 10635 10637 10638 10638 10638 10638 10637 10636 10635 10635 10634 10634 10634 10634 10635 10637 10638 10639 10640 10642 10643 10645 10646 10648 10650 10651 10653 10655 10656 10656 10657 10657 10657 10658 10657 10658 10658 10658 10658 10657
10626 10629 10632 10634 10634 10634 10634 10633 10632 10631 10631 10631 10631 10631 10630 10630 10631 10632 10633 10634 10636 10637 10638 10640 10643 10645 10646 10646 10647 10649 10651 10651 10651 10652 10652 10652 10652 10653 10653 10653 10652 10651
10625 10629 10632 10631 10630 10630 10630 10629 10628 10627 10627 10627 10627 10627 10627 10627 10627 10628 10628 10629 10631 10633 10634 10635 10638 10641 10642 10642 10643 10644 10646 10646 10646 10646 10647 10647 10647 10647 10647 10647 10647 10646
10626 10628 10630 10629 10627 10625 10625 10626 10625 10624 10623 10623 10624 10624 10623 10623 10624 10624 10625 10625 10627 10629 10629 10631 10633 10636 10638 10639 10639 10640 10641 10642 10641 10641 10641 10641 10641 10641 10641 10641 10641 10640
10621 10623 10624 10626 10625 10621 10621 10623 10622 10620 10619 10619 10620 10620 10620 10620 10621 10622 10622 10622 10624 10625 10626 10626 10628 10630 10632 10635 10636 10636 10636 10637 10636 10636 10636 10636 10636 10636 10636 10636 10635 10635
10616 10617 10619 10621 10621 10618 10617 10618 10617 10616 10616 10616 10616 10616 10617 10617 10618 10619 10619 10620 10620 10621 10621 10622 10623 10625 10627 10629 10631 10631 10631 10631 10631 10631 10631 10631 10631 10630 10630 10630 10630 10630
10611 10613 10615 10617 10617 10615 10614 10614 10613 10612 10612 10612 10611 10611 10612 10613 10613 10614 10615 10616 10616 10617 10617 10618 10619 10620 10622 10624 10626 10627 10626 10625 10625 10625 10625 10625 10625 10625 10625 10625 10625 10625
10606 10609 10611 10613 10614 10614 10612 10610 10609 10608 10607 10607 10606 10606 10607 10608 10608 10609 10610 10611 10612 10613 10613 10614 10615 10616 10618 10620 10621 10622 10622 10621 10620 10620 10620 10621 10621 10620 10620 10620 10621 10621
10602 10606 10607 10608 10609 10611 10610 10606 10602 10602 10603 10602 10601 10601 10602 10603 10603 10604 10606 10608 10609 10610 10610 10611 10611 10612 10614 10616 10618 10619 10618 10617 10617 10616 10617 10617 10617 10617 10616 10616 10617 10617
10599 10603 10604 10604 10604 10605 10606 10603 10597 10596 10598 10599 10598 10597 10598 10599 10600 10602 10603 10605 10606 10607 10607 10608 10608 10609 10610 10612 10614 10615 10615 10615 10614 10614 10614 10614 10614 10613 10613 10613 10613 10614
10599 10601 10601 10602 10601 10600 10600 10597 10593 10591 10594 10596 10596 10595 10595 10596 10597 10599 10601 10602 10603 10603 10605 10606 10606 10606 10607 10608 10610 10611 10612 10612 10612 10611 10611 10611 10610 10610 10610 10610 10610 10611
10599 10599 10599 10599 10598 10597 10596 10593 10590 10589 10592 10595 10595 10593 10592 10593 10595 10597 10599 10599 10600 10601 10602 10603 10604 10604 10605 10606 10607 10607 10607 10608 10608 10609 10609 10608 10608 10607 10607 10607 10608 10608
10593 10593 10595 10595 10595 10594 10593 10590 10587 10586 10589 10593 10593 10590 10590 10590 10592 10594 10596 10597 10598 10599 10599 10600 10601 10602 10604 10605 10605 10604 10603 10603 10604 10604 10605 10605 10605 10605 10605 10605 10605 10606
10586 10588 10590 10591 10590 10590 10589 10587 10585 10584 10585 10588 10589 10587 10587 10587 10589 10591 10593 10594 10595 10596 10597 10598 10599 10600 10601 10602 10603 10603 10602 10600 10600 10600 10600 10602 10603 10603 10602 10602 10603 10604
10583 10587 10586 10584 10584 10585 10584 10583 10582 10581 10581 10583 10584 10583 10584 10584 10586 10588 10589 10590 10591 10592 10593 10595 10596 10597 10597 10598 10599 10600 10600 10599 10597 10596 10596 10597 10599 10599 10599 10599 10599 10601
10581 10582 10580 10580 10580 10581 10580 10578 10577 10576 10576 10579 10579 10578 10580 10581 10583 10583 10585 10586 10587 10588 10589 10590 10592 10593 10594 10594 10595 10596 10597 10598 10596 10594 10593 10593 10594 10595 10595 10595 10596 10597
10573 10573 10575 10577 10577 10577 10576 10575 10574 10571 10570 10573 10574 10574 10575 10577 10578 10578 10579 10582 10584 10584 10584 10585 10587 10588 10590 10591 10591 10592 10593 10594 10593 10591 10590 10589 10589 10590 10590 10591 10592 10592
10564 10566 10568 10570 10571 10572 10572 10572 10571 10568 10566 10566 10568 10569 10571 10573 10573 10572 10573 10577 10580 10580 10580 10580 10582 10583 10585 10586 10587 10588 10589 10589 10588 10588 10587 10586 10585 10584 10585 10585 10586 10587
10559 10559 10562 10565 10566 10566 10566 10568 10568 10566 10563 10562 10562 10563 10566 10569 10569 10567 10567 10571 10574 10575 10575 10576 10577 10578 10580 10581 10582 10583 10583 10584 10584 10583 10583 10582 10581 10580 10579 10579 10580 10581
10554 10554 10557 10561 10562 10561 10561 10562 10564 10563 10561 10559 10557 10557 10560 10563 10563 10563 10564 10565 10567 10568 10569 10570 10572 10573 10575 10576 10576 10576 10577 10577 10578 10578 10578 10577 10577 10575 10574 10574 10574 10575
10549 10551 10554 10556 10555 10554 10555 10558 10559 10559 10557 10555 10552 10550 10554 10557 10557 10558 10559 10560 10561 10562 10562 10563 10565 10567 10569 10571 10571 10570 10570 10570 10571 10572 10572 10572 10571 10570 10568 10567 10568 10569
10543 10545 10547 10547 10545 10546 10549 10552 10553 10553 10552 10550 10547 10545 10548 10551 10551 10552 10553 10554 10555 10556 10555 10556 10558 10559 10562 10564 10564 10564 10563 10563 10564 10565 10566 10565 10565 10564 10562 10561 10560 10561
10536 10537 10539 10539 10538 10540 10543 10545 10547 10548 10547 10546 10542 10540 10543 10545 10546 10547 10547 10547 10548 10549 10548 10549 10551 10552 10553 10555 10556 10556 10556 10556 10557 10557 10558 10558 10558 10557 10556 10555 10553 10553